Weather History for Aurora, CO

Change the Weather History Date:

Monday, October 15, 2012

  Actual Average Record
Temperature  
Mean Temperature 60 °F -  
Max Temperature 75 °F 63 °F 80 °F (2014)
Min Temperature 44 °F 37 °F 30 °F (2001)
Degree Days  
Heating Degree Days 6    
Growing Degree Days 10 (Base 50)    
Moisture  
Dew Point 28 °F    
Average Humidity 36    
Maximum Humidity 66    
Minimum Humidity 14    
Precipitation  
Precipitation 0.00 in - - ()
Sea Level Pressure  
Sea Level Pressure 29.90 in    
Wind  
Wind Speed 9 mph (SSW)    
Max Wind Speed 16 mph    
Max Gust Speed -    
Visibility 10 miles    
Events      
Averages and records for this station are not official NWS values.
T = Trace of Precipitation, MM = Missing Value Source: NWS Daily Summary

Daily Weather History Graph

Daily Weather History Graph

Search for Another Location

Airport:

Trip Planner

Search our weather history database for the weather conditions in past years. The results will help you decide how hot, cold, wet, or windy it might be!

Date:

Astronomy

Oct. 15, 2012 Rise Set
Actual Time 7:09 AM MDT 6:18 PM MDT
Civil Twilight 6:42 AM MDT 6:46 PM MDT
Nautical Twilight 6:11 AM MDT 7:17 PM MDT
Astronomical Twilight 5:40 AM MDT 7:48 PM MDT
Moon 7:23 AM MDT (10/15) 6:20 PM MDT (10/15)
Length of Visible Light 12h 03m
Length of Day
11h 09m
New Moon, 0% of the Moon is Illuminated
Oct 15
New Moon
Oct 21
First Quarter
Oct 29
Full
Nov 6
Last Quarter
Nov 13
New

Hourly Weather History & Observations

Time (MDT) Temp. Windchill Dew Point Humidity Pressure Visibility Wind Dir Wind Speed Gust Speed Precip Events Conditions
12:55 AM 46.4 °F 41.5 °F 33.8 °F 62% 30.07 in 25.0 mi South 10.4 mph - N/A   Clear
1:55 AM 44.6 °F 39.2 °F 33.8 °F 66% 30.05 in 25.0 mi South 10.4 mph - N/A   Clear
2:55 AM 44.6 °F 39.7 °F 32.0 °F 61% 30.04 in 25.0 mi South 9.2 mph - N/A   Clear
3:55 AM 44.6 °F 39.7 °F 32.0 °F 61% 30.01 in 25.0 mi South 9.2 mph - N/A   Clear
4:55 AM 44.6 °F 39.7 °F 32.0 °F 61% 29.99 in 25.0 mi South 9.2 mph - N/A   Clear
5:55 AM 44.6 °F 38.8 °F 30.2 °F 57% 29.99 in 25.0 mi South 11.5 mph - N/A   Clear
6:55 AM 44.6 °F 38.4 °F 28.4 °F 53% 30.00 in 70.0 mi South 12.7 mph - N/A   Mostly Cloudy
7:55 AM 46.4 °F 41.9 °F 28.4 °F 50% 29.99 in 70.0 mi South 9.2 mph - N/A   Scattered Clouds
8:55 AM 53.6 °F - 32.0 °F 44% 29.98 in 70.0 mi South 9.2 mph - N/A   Scattered Clouds
9:55 AM 60.8 °F - 28.4 °F 29% 29.94 in 70.0 mi South 6.9 mph - N/A   Scattered Clouds
10:55 AM 66.2 °F - 24.8 °F 21% 29.93 in 70.0 mi SSW 8.1 mph - N/A   Partly Cloudy
11:55 AM 69.8 °F - 24.8 °F 18% 29.90 in 70.0 mi Calm Calm - N/A   Partly Cloudy
12:55 PM 73.4 °F - 24.8 °F 16% 29.85 in 70.0 mi SSW 4.6 mph - N/A   Partly Cloudy
1:55 PM 73.4 °F - 23.0 °F 15% 29.83 in 70.0 mi North 4.6 mph - N/A   Partly Cloudy
2:55 PM 75.2 °F - 23.0 °F 14% 29.81 in 70.0 mi NNW 4.6 mph - N/A   Partly Cloudy
3:55 PM 75.2 °F - 23.0 °F 14% 29.80 in 70.0 mi North 8.1 mph - N/A   Partly Cloudy
4:55 PM 73.4 °F - 24.8 °F 16% 29.79 in 70.0 mi NNW 16.1 mph - N/A   Partly Cloudy
5:55 PM 66.2 °F - 30.2 °F 26% 29.82 in 70.0 mi NE 8.1 mph - N/A   Partly Cloudy
6:55 PM 64.4 °F - 28.4 °F 26% 29.81 in 25.0 mi ESE 4.6 mph - N/A   Mostly Cloudy
7:55 PM 60.8 °F - 30.2 °F 31% 29.83 in 10.0 mi SE 6.9 mph - N/A   Mostly Cloudy
8:55 PM 57.2 °F - 32.0 °F 38% 29.82 in 10.0 mi South 4.6 mph - N/A   Mostly Cloudy
9:55 PM 55.4 °F - 28.4 °F 36% 29.83 in 10.0 mi NW 5.8 mph - N/A   Mostly Cloudy
10:55 PM 59.0 °F - 26.6 °F 29% 29.80 in 10.0 mi WNW 4.6 mph - N/A   Mostly Cloudy
11:55 PM 62.6 °F - 24.8 °F 24% 29.74 in 10.0 mi NW 16.1 mph - N/A   Mostly Cloudy